FW9687 Weather Reports


time (UTC)temp
C
wind
direction
speed
KPH
gust
KPH
rain 1hr
cm
rain 24hr
cm
rain mn
cm
humidity
%
barometer
mb
20260510130051 17 5 9.7 14.5 0.00 0.00 0.00 50 1009.3
20260510124530 17 5 11.3 16.1 0.00 0.00 0.00 48 1009.0
20260510123024 17 5 14.5 17.7 0.00 0.00 0.00 48 1008.6
20260510121526 17 5 16.1 20.9 0.00 0.00 0.00 45 1008.4
20260510120034 17 5 17.7 22.5 0.00 0.00 0.00 45 1008.2
20260510114539 17 5 16.1 17.7 0.00 0.00 0.00 45 1008.1
20260510113037 16 5 17.7 20.9 0.00 0.00 0.00 46 1008.0
20260510111546 16 5 19.3 24.1 0.00 0.00 0.00 46 1008.1
20260510110033 16 5 17.7 20.9 0.00 0.00 0.00 43 1007.8
20260510104540 16 5 17.7 20.9 0.00 0.00 0.00 43 1007.9
20260510103030 16 5 17.7 19.3 0.00 0.00 0.00 42 1007.8
20260510101527 17 5 16.1 19.3 0.00 0.00 0.00 40 1007.6
20260510100027 17 5 16.1 19.3 0.00 0.00 0.00 39 1007.6
20260510094530 17 5 16.1 19.3 0.00 0.00 0.00 38 1007.6
20260510093024 17 5 14.5 19.3 0.00 0.00 0.00 37 1007.5
20260510091526 17 5 14.5 19.3 0.00 0.00 0.00 36 1007.4
20260510090023 18 5 12.9 19.3 0.00 0.00 0.00 36 1007.6
20260510084521 18 5 16.1 25.7 0.00 0.00 0.00 35 1007.6
20260510083022 18 5 24.1 29.0 0.00 0.00 0.00 35 1007.2
20260510081519 18 5 24.1 29.0 0.00 0.00 0.00 33 1007.1
20260510080019 18 5 22.5 25.7 0.00 0.00 0.00 32 1007.3
20260510074530 19 5 24.1 25.7 0.00 0.00 0.00 31 1007.5
20260510073023 20 5 19.3 22.5 0.00 0.00 0.00 29 1007.6
20260510071523 20 5 22.5 25.7 0.00 0.00 0.00 29 1007.8
20260510070022 20 5 24.1 27.4 0.00 0.00 0.00 28 1007.9
20260510064516 20 5 22.5 25.7 0.00 0.00 0.00 27 1008.0
20260510063016 20 5 20.9 25.7 0.00 0.00 0.00 27 1008.1
20260510061525 21 5 17.7 24.1 0.00 0.00 0.00 26 1008.1
20260510060035 21 5 16.1 25.7 0.00 0.00 0.00 24 1008.2
20260510054502 21 5 19.3 25.7 0.00 0.00 0.00 24 1008.3
20260510053001 21 5 19.3 29.0 0.00 0.00 0.00 22 1008.3
20260510051501 22 5 20.9 32.2 0.00 0.00 0.00 21 1008.2
20260510050101 22 5 20.9 29.0 0.00 0.00 0.00 19 1008.3
20260510050001 22 5 20.9 25.7 0.00 0.00 0.00 19 1008.3
20260510044517 23 5 20.9 27.4 0.00 0.00 0.00 18 1008.1
20260510043014 23 5 17.7 24.1 0.00 0.00 0.00 17 1008.1
20260510041516 24 5 19.3 29.0 0.00 0.00 0.00 16 1007.9
20260510040013 24 5 20.9 25.7 0.00 0.00 0.00 16 1007.9
20260510034511 25 5 19.3 24.1 0.00 0.00 0.00 15 1007.8
20260510033010 25 5 17.7 22.5 0.00 0.00 0.00 15 1007.7
20260510031511 25 5 17.7 22.5 0.00 0.00 0.00 15 1007.5
20260510030010 26 5 20.9 27.4 0.00 0.00 0.00 14 1007.5
20260510024511 26 5 20.9 27.4 0.00 0.00 0.00 13 1007.3
20260510023022 27 5 20.9 29.0 0.00 0.00 0.00 12 1007.1
20260510021508 27 5 22.5 29.0 0.00 0.00 0.00 11 1006.9
20260510020008 28 5 24.1 29.0 0.00 0.00 0.00 11 1006.8
20260510014504 28 5 24.1 29.0 0.00 0.00 0.00 11 1006.6
20260510013011 29 5 20.9 29.0 0.00 0.00 0.00 10 1006.5
20260510011511 30 5 20.9 27.4 0.00 0.00 0.00 9 1006.4
20260510010010 31 5 20.9 33.8 0.00 0.00 0.00 8 1006.4
20260510004504 31 5 22.5 30.6 0.00 0.00 0.00 8 1006.3
20260510003002 31 5 29.0 37.0 0.00 0.00 0.00 7 1006.3
20260510001600 32 5 22.5 30.6 0.00 0.00 0.00 7 1006.4
20260510000100 31 5 11.3 41.8 0.00 0.00 0.00 8 1006.6
20260509234507 31 5 16.1 30.6 0.00 0.00 0.00 7 1006.6
20260509233005 32 5 20.9 40.2 0.00 0.00 0.00 8 1006.7
20260509231505 32 5 19.3 43.5 0.00 0.00 0.00 7 1006.9
20260509230103 32 5 11.3 25.7 0.00 0.00 0.00 8 1007.1
20260509224510 31 5 12.9 33.8 0.00 0.00 0.00 8 1007.2
20260509223010 31 5 16.1 32.2 0.00 0.00 0.00 8 1007.4
20260509221507 31 5 6.4 30.6 0.00 0.00 0.00 8 1007.6
20260509220006 31 5 20.9 33.8 0.00 0.00 0.00 9 1007.7
20260509214552 31 5 11.3 33.8 0.00 0.00 0.00 9 1007.9
20260509213101 31 5 17.7 29.0 0.00 0.00 0.00 10 1008.1
20260509211649 31 5 32.2 48.3 0.00 0.00 0.00 9 1008.3
20260509210051 31 5 35.4 41.8 0.00 0.00 0.00 9 1008.6
20260509204603 31 5 19.3 43.5 0.00 0.00 0.00 10 1009.1
20260509203059 31 5 19.3 43.5 0.00 0.00 0.00 10 1009.4
20260509201550 30 5 29.0 45.1 0.00 0.00 0.00 11 1009.6
20260509200049 30 5 19.3 53.1 0.00 0.00 0.00 11 1009.8
20260509194548 30 5 37.0 49.9 0.00 0.00 0.00 12 1009.8
20260509193045 30 5 35.4 51.5 0.00 0.00 0.00 12 1010.1
20260509191544 30 5 37.0 46.7 0.00 0.00 0.00 13 1010.3
20260509190047 29 5 33.8 57.9 0.00 0.00 0.00 14 1010.3
20260509184529 29 5 41.8 54.7 0.00 0.00 0.00 14 1010.5
20260509183027 28 5 30.6 59.5 0.00 0.00 0.00 15 1010.7
20260509181524 28 5 35.4 56.3 0.00 0.00 0.00 14 1011.0
20260509180020 28 5 35.4 49.9 0.00 0.00 0.00 15 1011.2
20260509174518 28 5 33.8 48.3 0.00 0.00 0.00 16 1011.3
20260509173018 28 5 38.6 51.5 0.00 0.00 0.00 17 1011.5
20260509171516 27 5 30.6 54.7 0.00 0.00 0.00 17 1011.6
20260509170013 27 5 35.4 46.7 0.00 0.00 0.00 17 1011.7
20260509164517 27 5 35.4 45.1 0.00 0.00 0.00 18 1011.9
20260509163014 26 5 30.6 40.2 0.00 0.00 0.00 20 1011.9
20260509161512 26 5 25.7 40.2 0.00 0.00 0.00 23 1012.0
20260509160008 25 5 29.0 35.4 0.00 0.00 0.00 24 1012.0
20260509154506 25 5 25.7 38.6 0.00 0.00 0.00 26 1012.1
20260509153005 23 5 24.1 37.0 0.00 0.00 0.00 28 1012.2
20260509151559 23 5 29.0 35.4 0.00 0.00 0.00 29 1012.2
20260509150055 22 5 25.7 37.0 0.00 0.00 0.00 33 1012.4
20260509144559 21 5 19.3 25.7 0.00 0.00 0.00 39 1012.5
20260509143104 20 5 19.3 25.7 0.00 0.00 0.00 39 1012.6
20260509141552 20 5 17.7 29.0 0.00 0.00 0.00 40 1012.5
20260509140050 18 5 19.3 27.4 0.00 0.00 0.00 41 1012.4
20260509134552 17 5 16.1 22.5 0.00 0.00 0.00 45 1012.2
20260509133054 17 5 12.9 22.5 0.00 0.00 0.00 47 1012.2
20260509131543 16 5 12.9 19.3 0.00 0.00 0.00 50 1012.1